Regional Weather Roundup
Issued by NWS

Home | Current Version | Previous Version | Graphics & Text | Print | Product List | Glossary On
Versions: 1 2 3 4 5 6 7 8 9 10 11 12 13 14 15 16 17 18 19 20 21 22 23 24 25 26 27 28 29 30 31 32 33 34 35 36 37 38 39 40 41 42 43 44 45 46 47 48 49 50
000
ASUS45 KCYS 111110
RWRWY

WYOMING REGIONAL WEATHER ROUNDUP
NATIONAL WEATHER SERVICE CHEYENNE WY
400 AM MST MON DEC 11 2017

NOTE:  "FAIR" INDICATES FEW OR NO CLOUDS BELOW 12,000 FEET
WITH NO SIGNIFICANT WEATHER AND/OR OBSTRUCTIONS TO VISIBILITY.

WYZ001-111200-
YELLOWSTONE NATIONAL PARK

CITY           SKY/WX    TMP DP  RH WIND       PRES   REMARKS
LK YELLOWSTONE   N/A      3   0  87 CALM      30.58F
W YELLOWSTONE  NOT AVBL

$$
WYZ002>013-054>058-071-098>099-111200-
NORTHERN WYOMING

CITY           SKY/WX    TMP DP  RH WIND       PRES   REMARKS
JACKSON        FAIR       8   4  83 N7        30.60S WCI  -3
CODY           FAIR      27  10  49 W3        30.40S
GREYBULL       FAIR      13   9  84 SE6       30.41S WCI   4
WORLAND        FAIR      15  12  88 S3        30.40S
SHERIDAN       FAIR      36  14  40 E5        30.36R WCI  32
BUFFALO        FAIR      40   9  28 N8        30.34R WCI  34
GILLETTE       FAIR      36  15  42 W12       30.31R WCI  28
HULETT         FAIR      41  18  38 NW10G18   30.28R
NEWCASTLE      FAIR      37  16  41 NW18G25   30.25S WCI  27

$$
WYZ014>020-022>026-101>103-111200-
CENTRAL WYOMING

CITY           SKY/WX    TMP DP  RH WIND       PRES   REMARKS
BIG PINEY      FAIR      18   1  47 W5        30.49F WCI  11
PINEDALE       FAIR      27   3  36 NW13      30.48F WCI  16
DUBOIS         FAIR      37   3  23 NW12G25   30.45F WCI  30
LANDER         FAIR      25  13  60 W7        30.39S WCI  17
RIVERTON       FAIR      16  12  84 CALM      30.40S
CASPER         FAIR      34  12  40 SW15      30.38R WCI  24
DOUGLAS        FAIR      22  15  75 NW6       30.35R WCI  14

$$
WYZ021-027>030-104>119-111200-
SOUTHERN WYOMING

CITY           SKY/WX    TMP DP  RH WIND       PRES   REMARKS
EVANSTON       FAIR      27   6  41 SW5       30.54F WCI  22
FORT BRIDGER   FAIR      35  -1  21 W10       30.54S WCI  28
ROCK SPRINGS   FAIR      26   5  40 SW8       30.49F WCI  18
DIXON          FAIR       6   0  76 CALM      30.56S
RAWLINS        FAIR      30   7  37 SW16      30.45S WCI  19
SARATOGA       FAIR      10   3  72 CALM      30.47F
LARAMIE        FAIR      23   2  40 W10       30.39S WCI  12
CHEYENNE       FAIR      41  -1  17 N13G22    30.30S
TORRINGTON     FAIR      32  12  43 NW7       30.27S WCI  26
PINE BLUFFS    FAIR      32   1  27 MISG      30.29F

$$



USA.gov is the U.S. government's official web portal to all federal, state and local government web resources and services.